Flag for Spain Weather past 2 weeks in Arrecife, Canary Islands, Spain

Now
75 °F

Passing clouds.


Feels Like: 78 °F
Forecast: 63 / 72 °F
Wind: 14 mph from North

Location: Lanzarote / Aeropuerto


UV Index: 7 (High)

Visibility: N/A


Pressure: 30.04 "Hg

Humidity: 47%

Dew point: 54 °F

Location of ArrecifeLocation

Historic Weather in Arrecife

°F

Arrecife temperature yesterday

Maximum temperature yesterday: 73 °F (at 6:00 PM)
Minimum temperature yesterday: 63 °F (at 6:00 AM)
Average temperature yesterday: 67 °F

Past Weeks' High & Low Weather Summary

 TemperatureHumidityPressure
High77 °F (Apr 6, 1:30 PM)88% (Apr 5, 7:00 AM)30.21 "Hg (Apr 5, 7:00 AM)
Low57 °F (Apr 3, 6:00 AM)38% (Apr 3, 3:00 PM)29.86 "Hg (Apr 13, 1:30 PM)
Average67 °F74%30.01 "Hg
* Reported Apr 2 5:00 PM — Apr 17 5:00 PM, Arrecife, Weather by CustomWeather, © 2014

Note: Actual official high and low records may vary slightly from our data, if they occured in-between our weather recording intervals... More about our weather records

Advertising

Historic Weather Conditions — Data for Previous 24 hours

 ConditionsComfort  
Time TempWeatherWind HumidityBarometerVisibility
5:00 PM
Apr 17
73 °FPassing clouds.14 mph44%30.04 "HgN/A
4:30 PM75 °FPassing clouds.14 mph44%30.04 "HgN/A
4:00 PM75 °FPassing clouds.14 mph41%30.04 "HgN/A
3:30 PM68 °FPassing clouds.15 mph78%30.07 "HgN/A
3:00 PM68 °FPassing clouds.16 mph78%30.07 "HgN/A
2:30 PM68 °FPassing clouds.16 mph78%30.07 "HgN/A
2:00 PM68 °FPassing clouds.13 mph83%30.07 "HgN/A
1:30 PM68 °FPassing clouds.16 mph78%30.07 "HgN/A
1:00 PM68 °FPassing clouds.15 mph78%30.09 "HgN/A
12:30 PM68 °FPassing clouds.14 mph78%30.09 "HgN/A
12:00 PM68 °FPassing clouds.15 mph78%30.09 "HgN/A
11:30 AM68 °FPassing clouds.8 mph78%30.09 "HgN/A
11:00 AM70 °FPassing clouds.9 mph64%30.09 "HgN/A
10:30 AM68 °FPassing clouds.9 mph73%30.09 "HgN/A
10:00 AM68 °FPassing clouds.12 mph69%30.07 "HgN/A
9:30 AM66 °FPassing clouds.6 mph73%30.07 "HgN/A
9:00 AM66 °FPassing clouds.5 mph78%30.07 "HgN/A
8:30 AM63 °FPassing clouds.2 mph88%30.07 "HgN/A
8:00 AM63 °FPassing clouds.3 mph88%30.04 "HgN/A
7:30 AM63 °FPassing clouds.7 mph83%30.04 "HgN/A
7:00 AM63 °FPassing clouds.3 mph83%30.04 "HgN/A
6:30 AM63 °FPassing clouds.5 mph83%30.04 "HgN/A
6:00 AM63 °FPassing clouds.3 mph83%30.04 "HgN/A
1:00 AM64 °FPassing clouds.9 mph83%30.09 "HgN/A
12:30 AM64 °FPassing clouds.9 mph83%30.09 "HgN/A
12:00 AM66 °FPassing clouds.10 mph73%30.09 "HgN/A
11:30 PM
Apr 16
66 °FPassing clouds.10 mph78%30.09 "HgN/A
11:00 PM66 °FPassing clouds.8 mph73%30.09 "HgN/A
10:30 PM66 °FPassing clouds.13 mph73%30.07 "HgN/A
10:00 PM66 °FPassing clouds.12 mph73%30.07 "HgN/A
9:30 PM66 °FPassing clouds.12 mph78%30.07 "HgN/A
9:00 PM66 °FPassing clouds.14 mph78%30.04 "HgN/A
8:30 PM68 °FPassing clouds.13 mph73%30.04 "HgN/A
8:00 PM70 °FPassing clouds.13 mph69%30.04 "HgN/A
7:30 PM70 °FPassing clouds.14 mph69%30.04 "HgN/A
7:00 PM72 °FPassing clouds.13 mph61%30.01 "HgN/A
6:30 PM73 °FPassing clouds.14 mph57%30.01 "HgN/A
6:00 PM73 °FScattered clouds.10 mph57%30.01 "HgN/A
Weather by CustomWeather, © 2014

See weather overview